Back to catalog

CZ-4B DEB

AliveSSO
NORAD 43661·DEBRIS·🇨🇳 China

Launched Oct 24, 2018 from Taiyuan Satellite Launch Center

Loading…

Next Passes (next 24 hours)

TLE

FreshSource: Space-Track

Epoch: Sep 14, 2026, 12:58 UTC

1 43661U 18081E   26257.54076133  .00000038  00000-0  66378-4 0  9994
2 43661  99.1193 285.6450 0014112  96.3745 263.9021 13.89494886400015

Track CZ-4B DEB in real time with AllMySat

Download on the App Store